COSMOS 2116

Satellite information

Favourite Embed

Satellite Type and Status

PAYLOADIN ORBIT

Key statistics

Satellite COSMOS 2116 at a glance.

Uptime

12729

Days in orbit

Revolutions

≈ 12.6

Per day

Orbit

LEO

Low Earth Orbit

Inclination

82.6

Latest

Satellite identification and parameters

Extended collection of information and parameters for COSMOS 2116.

Object identification

Identified? True

Debris? False

Object name: COSMOS 2116

International designator: 1990-114C

Object number (NORAD): 21030

Object ID (CCSDS): 21030

Country: COMMONWEALTH OF INDEPENDENT STATES (CIS)

Current information (Y/N): Y

RCS size: MEDIUM

Orbital parameters

Period: 113.896 minutes

Inclination: 82.5784 deg

SMA: 7783.318 km

Apoapsis: 1407.854 km

Periapsis: 1402.512 km

RAAN: 356.2311 deg

Eccentricy: 0.0003432

Argument of periapsis: 271.7752 deg

Mean anomaly: 152.7077 deg

Mean motion: 12.6431589 rev/day

Mean motion (dot): 0.00000023 rev/day2

B* drag term: 0.000069228 1/REarth

Two-line elements (TLE)

Creation date: Oct. 27, 2025, 2:46 p.m.

Reference frame: TEME

Reference center: EARTH

Epoch: Oct. 27, 2025, 6:02 a.m. UTC

TLE line 0: 0 COSMOS 2116

TLE line 1: 1 21030U 90114C 25300.25171609 .00000023 00000-0 69228-4 0 9998

TLE line 2: 2 21030 82.5784 356.2311 0003432 271.7752 152.7077 12.64315890607995

Live tracking on map

Real-time ground track for satellite COSMOS 2116.

In-orbit conjunctions

A list of the most updated potential collisions computed for object COSMOS 2116.

Target Orbit TCA Probability of collision Miss distance Type
COSMOS 1830 LEO 2025-07-01 03:35:49 0.0002608686 239.0 (m) PAYLOAD

Associated space launch

Second generation store-dump military communications satellite

COSMOS 2116 was lifted into orbit during the mission ‘Tsiklon-3 | Strela-3 55 to 60’, on board a Tsiklon-3 space rocket.

The launch took place on Dec. 22, 1990, 7:28 a.m. from 32/2.

For more information about the launch, click the button.

Launch to space Tsiklon-3 | Strela-3 55 to 60
Tsiklon-3 | Strela-3 55 to 60

Agency: N/A

Status: Launch Successful

Launch date: Dec. 22, 1990, 7:28 a.m. UTC

Rocket: Tsiklon-3

Launch pad: 32/2

Location: Plesetsk Cosmodrome, Russian Federation

...

Latest news about this satellite

There are no fresh news available about this satellite. Check back as we update our databases every day.


Newsletter sign-up

Weekly statistics, charts and insights to help you stay on top of the space industry.